www.pogodaiklimat.ru

Погода и климат >> Архив погоды >> Пакистан >> Мангла


ПОГОДА в Мангле

  • Прогноз погоды в Мангле
  • Монитор погоды в Мангле

АРХИВ ПОГОДЫ в Мангле

Время (UTC), дата Ветер
(напр.,м/с)
 
Видим.   Явления Облачность Т
(С)
Тd
(С)
f
(%)
Тe
(С)
Тes
(С)
Комфортность P
(гПа)
Po
(гПа)
Тmin
(С)
Tmax
(С)
R
(мм)
R24
(мм)
S
(см)
03 12.09 штиль 0 2000 м дымка ясно +31.0 +27.6 82 +50 +55 опасность
перегрева
1003.7 972.3 +27.8
06 12.09 штиль 0 2000 м дым 1/1 1200 м
[Cu med, cong]
+36.0 +27.2 61 +55 +73 опасность
перегрева
1003.8 972.9
09 12.09 ЮВ 6 4000 м дым 4/4 1200 м
[Sc diur, vesp]
+38.0 +25.6 49 +52 +55 опасность
перегрева
1002.6 971.9
12 12.09 СЗ 2 10 км 5/1 1200 м
[Sc Ac trans]
+32.0 +20.9 52 +39 +40 очень
душно
1001.8 970.5 +38.2 2
15 12.09 штиль 0 4000 м 3/0
[Ci fib]
+29.5 +23.8 71 +40 +40 очень
душно
1002.2 970.7
00 13.09 штиль 0 4000 м 3/0
[Ac trans]
+26.0 +23.1 84 +35 +35 очень
душно
1005.0 973.0
03 13.09 штиль 0 2000 м дымка 8/3 1200 м
[Sc Ac As]
+28.0 +24.4 81 +39 +41 очень
душно
1006.7 974.9 +25.8
06 13.09 штиль 0 2000 м дым 4/0
[Ac trans]
+33.0 +26.1 67 +49 +64 опасность
перегрева
1006.2 974.9
09 13.09 С 10 2000 м гроза без осадков 9/5 900 м
[Cb cap Ac As]
+34.5 +26.3 62 +51 +51 опасность
перегрева
1004.5 973.4
12 13.09 штиль 0 4000 м дым 5/3 1200 м
[Sc Ac trans]
+33.0 +22.1 53 +42 +43 опасность
перегрева
1003.4 972.2 +35.3 0.0
15 13.09 штиль 0 4000 м дым 3/0 600 м
[Ac trans]
+29.5 +23.0 68 +39 +39 очень
душно
1004.0 972.4
18 13.09 штиль 0 2000 м дым 4/0
[Ac trans]
+28.0 +22.9 74 +37 +37 очень
душно
1004.9 973.1
21 13.09 штиль 0 2000 м дым 4/0
[Ac trans]
+27.5 +22.4 74 +36 +36 очень
душно
1005.1 973.3
00 14.09 штиль 0 2000 м дымка 9/4 1200 м
[Sc Ac As]
+27.0 +24.4 86 +38 +38 очень
душно
1005.6 973.7
03 14.09 штиль 0 1000 м дымка 6/1 1200 м
[Sc Ac trans]
+29.0 +25.5 81 +43 +46 опасность
перегрева
1006.1 974.4 +35.3
06 14.09 Ю 2 2000 м дым 8/3 1200 м
[Sc diur, vesp Ac trans]
+32.5 +25.5 67 +47 +53 опасность
перегрева
1006.6 975.2
09 14.09 ЮВ 2 2000 м гроза без осадков 9/5 900 м
[Cb cap Ac As]
+33.5 +26.6 67 +50 +53 опасность
перегрева
1005.2 974.0
12 14.09 штиль 0 2000 м дым {гроза} 6/3 1200 м
[Sc diur, vesp Ac trans]
+33.0 +26.8 70 +51 +52 опасность
перегрева
1003.9 972.7 +34.2
15 14.09 штиль 0 2000 м дым 3/0
[Ac trans]
+29.5 +25.3 78 +43 +43 опасность
перегрева
1005.1 973.5
18 14.09 штиль 0 2000 м дымка 4/0
[Ac trans]
+28.5 +25.0 81 +41 +41 опасность
перегрева
1006.4 974.6
21 14.09 штиль 0 1000 м дымка 8/3 1200 м
[Sc Ac trans]
+27.5 +24.7 85 +39 +39 очень
душно
1006.5 974.6
00 15.09 штиль 0 1000 м дымка 8/3 1200 м
[Sc diur, vesp Ac trans]
+27.5 +25.4 88 +40 +40 очень
душно
1006.8 974.9
03 15.09 штиль 0 1000 м дымка 9/3 1200 м
[Sc diur, vesp Ac trans]
+28.5 +26.4 88 +43 +45 опасность
перегрева
1007.4 975.6 +26.4
06 15.09 штиль 0 1000 м дым 8/3 1200 м
[Sc diur, vesp Ac trans]
+33.0 +26.1 67 +49 +57 опасность
перегрева
1007.1 975.8
09 15.09 ЮЗ 3 2000 м гроза без осадков 9/8 900 м
[Cb cap Ac trans]
+34.5 +26.3 62 +51 +52 опасность
перегрева
1004.8 973.7
12 15.09 штиль 0 10 км 3/3 1200 м
[Sc diur, vesp]
+31.0 +24.6 69 +44 +45 опасность
перегрева
1003.8 972.4 +35.7 8
18 15.09 штиль 0 4000 м 3/0
[Ac trans]
+27.5 +24.7 85 +39 +39 очень
душно
1005.5 973.7
21 15.09 штиль 0 4000 м дым 4/1 1200 м
[Sc diur, vesp Ac trans]
+26.5 +24.4 88 +37 +37 очень
душно
1006.7 974.7
06 16.09 ЮЗ 2 10 км 9/4 1200 м
[Sc diur, vesp Ac trans]
+25.0 +22.0 83 +32 +37 очень
душно
1007.5 975.3 2
09 16.09 ЮЗ 2 10 км 4/1 1200 м
[Sc diur, vesp Ac trans]
+30.5 +21.7 59 +39 +47 очень
душно
1004.5 973.0
12 16.09 ЮВ 2 10 км 4/1 1200 м
[Sc diur, vesp Ac trans]
+32.0 +24.2 63 +44 +45 опасность
перегрева
1002.4 971.1 +32.3
15 16.09 штиль 0 4000 м 3/0
[Ac trans]
+28.0 +24.4 81 +39 +39 очень
душно
1003.5 971.8
18 16.09 штиль 0 4000 м 3/0
[Ac trans]
+26.5 +23.6 84 +36 +36 очень
душно
1004.7 972.8
21 16.09 штиль 0 4000 м 4/1 1200 м
[Sc diur, vesp Ac trans]
+25.0 +23.5 91 +34 +34 очень
душно
1005.7 973.6
00 17.09 штиль 0 2000 м 4/0
[Ac trans Ci fib]
+24.5 +23.0 91 +32 +32 очень
душно
1005.4 973.3
03 17.09 ЮЗ 2 4000 м гроза без осадков 8/5 900 м
[Cb cap Ac trans]
+23.0 +22.3 96 +31 +33 очень
душно
1007.9 975.5 +21.1 11
06 17.09 СЗ 3 4000 м гроза, ливневой дождь {морось} 8/5 900 м
[Cb cap Ac trans]
+27.5 +24.7 85 +39 +43 очень
душно
1008.0 976.1 0.0
09 17.09 ЮЗ 3 4000 м 4/3 1350 м
[Sc diur, vesp Ac trans]
+31.0 +18.8 48 +36 +42 очень
душно
1006.0 974.5 0.0
12 17.09 штиль 0 4000 м ясно +32.0 +25.0 67 +46 +47 опасность
перегрева
1004.2 972.9 +32.5
15 17.09 ЮВ 3 4000 м 4/4 1200 м
[Sc diur, vesp]
+28.5 +22.7 71 +38 +38 очень
душно
1005.2 973.5
18 17.09 штиль 0 4000 м ясно +26.0 +23.1 84 +35 +35 очень
душно
1006.6 974.6
21 17.09 штиль 0 4000 м ясно +25.0 +22.8 88 +33 +33 очень
душно
1007.2 975.1
00 18.09 штиль 0 4000 м дым ясно +23.5 +22.0 91 +30 +30 очень
душно
1007.5 975.2
03 18.09 штиль 0 2000 м дымка ясно +25.0 +23.5 91 +34 +38 очень
душно
1010.2 978.0 +22.0
06 18.09 СЗ 2 4000 м дым ясно +31.5 +22.9 60 +41 +56 опасность
перегрева
1010.5 978.9
09 18.09 ЮВ 4 4000 м ясно +33.5 +23.5 56 +44 +52 опасность
перегрева
1009.2 977.9
12 18.09 ЮВ 3 4000 м ясно +33.0 +24.6 61 +46 +47 опасность
перегрева
1007.9 976.6 +34.0
15 18.09 штиль 0 4000 м ясно +30.0 +22.6 65 +40 +40 очень
душно
1008.2 976.5
18 18.09 штиль 0 4000 м дым ясно +28.5 +25.7 85 +42 +42 опасность
перегрева
1009.2 977.4
21 18.09 штиль 0 4000 м ясно +26.0 +23.8 88 +36 +36 очень
душно
1010.4 978.3
00 19.09 штиль 0 4000 м дым 8/3 1350 м
[Sc Ac As]
+27.0 +24.9 88 +39 +39 очень
душно
1011.1 979.0

 

Местоположение метеостанции Мангла (Пакистан): широта 33.07 долгота 73.63 высота над уровнем моря 283 м.

В архиве по умолчанию представлена погода в Мангле за последнюю неделю. Архивные данные за месяц целиком и за предыдущие месяцы, начиная с января 2011 года, Вы можете получить, выбрав интересующий диапазон дат из раскрывающегося списка и нажав кнопку "Ввод!".


*Определитесь, кто Вы:
робот инопланетянин человек

Внимание! Время в таблицах - всемирное. Для получения местного времени необходимо прибавить поправку, которая равна 5 ч.

Смотрите также архив погоды в соседних городах и на ближайших метеорологических станциях:

Погода в Джеламе (Пакистан) (18 км)
Погода в Сиалкот аэропорту (Пакистан) (71 км)
Погода в Гуджрате (Пакистан) (74 км)
Погода в Чаквале (Пакистан) (75 км)
Погода в Исламабаде (Пакистан) (79 км)
Погода в Исламабад Сити (Пакистан) (87 км)
Погода в Равалакоте (Пакистан) (88 км)
Погода в Мерри (Пакистан) (97 км)
Погода в Сиялкоте (Пакистан) (105 км)
Погода в Хафизабаде (Пакистан) (110 км)

Пояснения к столбцам:

Ветер - указаны скорость ветра в м/с - средняя за 10 мин, порывы в срок и между сроками (в фигурных скобках) и направление, откуда дует ветер: С - северный, СВ - северо-восточный, В - восточный, ЮВ - юго-восточный, Ю - южный, ЮЗ - юго-западный, З - западный, СЗ - северо-западный.
Видимость - горизонтальная дальность видимости в метрах или километрах. При видимости от 1 до 10 км при отсутствии осадков обычно наблюдается дымка, при ухудшении видимости до 1 км и менее - туман. В сухую погоду видимость может ухудшаться дымом, пылью или мглою.
Явления - указаны атмосферные явления, наблюдавшиеся в срок или в последний час перед сроком; фигурными скобками обозначены явления, наблюдавшиеся между сроками (за 1-3 часа до срока); квадратными скобками обозначены град или гололедные отложения с указанием их диаметра в мм.
Облачность - указаны через наклонную черту общая и нижняя облачность в баллах и высота нижней границы облаков в метрах; квадратными скобками обозначены формы облаков: Ci - перистые, Cs - перисто-слоистые, Cc - перисто-кучевые, Ac - высококучевые, As - высокослоистые, Sc - слоисто-кучевые, Ns - слоисто-дождевые, Cu - кучевые, Cb - кучево-дождевые. Подробнее классификацию облаков см. в Атласе облаков (PDF).
T - Температура воздуха - температура, измеренная на высоте 2 м над землей.
Td - Температура точки росы - температура, при понижении до которой содержащийся в воздухе водяной пар достигнет насыщения.
f - Относительная влажность воздуха - влажноcть воздуха, измеренная на высоте 2 м над землей.
Te - Эффективная температура - температура, которую ощущает одетый по сезону человек в тени. Характеристика душности погоды. При расчете учитывается влияние влажности воздуха и скорости ветра на теплоощущения человека.
Tes - Эффективная температура на солнце - температура, которую ощущает человек, с поправкой на солнечный нагрев. Характеристика знойности погоды. Зависит от высоты солнца над горизонтом, облачности и скорости ветра. Ночью, в пасмурную погоду, а также при ветре 12 м/с и более поправка равна нулю.
P - Атмосферное давление - приведенное к уровню моря атмосферное давление.
Po - Атмосферное давление - измеренное на уровне метеостанции атмосферное давление.
Tmin - Минимальная температура - минимум температуры воздуха на высоте 2 м над землей.
Tmax - Максимальная температура - максимум температуры воздуха на высоте 2 м над землей.
R - Количество осадков - Количество выпавших осадков за период времени, мм. При наведении курсора мыши на число - период времени, за который выпало указанное количество осадков.
R24 - Количество осадков - Количество выпавших осадков за 24 часа, мм.
S - Снежный покров - Высота снежного покрова, см. При наведении курсора мыши на число - состояние снежного покрова и степень покрытия местности в баллах.